PATCOOL

Last updated on Sat Nov 19 2022 00:02:07 GMT+0000 (Coordinated Universal Time)

1 51442U 98067TE 22321.79859641 .13752827 12522-4 30048-3 0 9994 2 51442 51.6105 259.7253 0003975 208.2249 151.8565 16.46539089 46316

Satellite not in orbit